Orbital Elements at Epoch 2459200.5 (2020-Dec-17.0) TDB
Reference: JPL 17 (heliocentric ecliptic J2000)
Element | Value | Uncertainty (1-sigma) | Units |
e | .1635250111243226 | 4.8504e-08 | |
a | 3.041925049723578 | 2.5883e-08 | au |
q | 2.544494222128175 | 1.4175e-07 | au |
i | 10.25372089945755 | 5.0229e-06 | deg |
node | 110.1386724391656 | 3.1304e-05 | deg |
peri | 39.56903582873037 | 3.6048e-05 | deg |
M | 153.9427775209856 | 1.8684e-05 | deg |
tp | 2458371.836885337490 (2018-Sep-10.33688534) | 9.7463e-05 | TDB |
period | 1937.854611190426 5.31 | 2.4733e-05 6.772e-08 | d yr |
n | .1857724505858836 | 2.371e-09 | deg/d |
Q | 3.539355877318981 | 3.0115e-08 | au |
|
| | Orbit Determination Parameters
Additional Information
|